Kyiv, Ukraine

7:37 AM EET on December 15, 2018 (GMT +0200)
Zhuliany

Weather History for UKKK - October, 2018

Change the Weather History Date:

Friday, October 12, 2018

  Actual Average (UKBB) Record (UKBB)
Temperature  
Mean Temperature 53 °F -  
Max Temperature 65 °F 53 °F 69 °F (2014)
Min Temperature 39 °F 36 °F 26 °F (2002)
Degree Days  
Heating Degree Days 12    
Growing Degree Days 3 (Base 50)    
Moisture  
Dew Point 41 °F    
Average Humidity 65    
Maximum Humidity 93    
Minimum Humidity 23    
Precipitation  
Precipitation 0.00 in 0.05 in - ()
Sea Level Pressure  
Sea Level Pressure 30.52 in    
Wind  
Wind Speed 6 mph ()    
Max Wind Speed 11 mph    
Max Gust Speed -    
Visibility 7.8 miles    
Events      
Averages and records for this station are not official NWS values.
T = Trace of Precipitation, MM = Missing Value Source: Averaged Metar Reports

Daily Weather History Graph

Daily Weather History Graph

Search for Another Location

Airport or City:

Astronomy

Oct. 12, 2018 Rise Set
Actual Time 7:15 AM EEST 6:13 PM EEST
Civil Twilight 6:42 AM EEST 6:45 PM EEST
Nautical Twilight 6:04 AM EEST 7:23 PM EEST
Astronomical Twilight 5:26 AM EEST 8:01 PM EEST
Moon 10:44 AM EEST (10/12) 8:18 PM EEST (10/12)
Length of Visible Light 12h 03m
Length of Day
10h 57m
Waxing Crescent, 12% of the Moon is Illuminated
Oct 12
Waxing Crescent
Oct 16
First Quarter
Oct 24
Full
Oct 31
Last Quarter
Nov 7
New

Hourly Weather History & Observations

Time (EEST) Temp. Windchill Dew Point Humidity Pressure Visibility Wind Dir Wind Speed Gust Speed Precip Events Conditions
12:00 AM 53 °F - 46 °F 71% 30.47 in 12 mi East 4.5 mph - -   Mostly Cloudy
12:00 AM 53.6 °F - 46.4 °F 77% 30.45 in 6.2 mi ENE 8.9 mph - N/A   Mostly Cloudy
12:30 AM 53.6 °F - 46.4 °F 77% 30.45 in 6.2 mi ENE 6.7 mph - N/A   Mostly Cloudy
1:00 AM 53.6 °F - 46.4 °F 77% 30.45 in 6.2 mi ENE 6.7 mph - N/A   Mostly Cloudy
1:30 AM 51.8 °F - 46.4 °F 82% 30.48 in 6.2 mi East 6.7 mph - N/A   Overcast
2:00 AM 51.8 °F - 46.4 °F 82% 30.48 in 6.2 mi East 6.7 mph - N/A   Overcast
2:30 AM 53.6 °F - 44.6 °F 72% 30.48 in 6.2 mi East 8.9 mph - N/A   Overcast
3:00 AM 53 °F - 45 °F 65% 30.48 in 12 mi ESE 4.5 mph - -   Overcast
3:00 AM 53.6 °F - 44.6 °F 72% 30.48 in 6.2 mi East 8.9 mph - N/A   Overcast
3:30 AM 53.6 °F - 44.6 °F 72% 30.48 in 6.2 mi East 6.7 mph - N/A   Overcast
4:00 AM 53.6 °F - 46.4 °F 77% 30.48 in 6.2 mi ENE 6.7 mph - N/A   Overcast
4:30 AM 51.8 °F - 46.4 °F 82% 30.48 in 6.2 mi ENE 6.7 mph - N/A   Overcast
5:00 AM 51.8 °F - 46.4 °F 82% 30.48 in 6.2 mi East 6.7 mph - N/A   Overcast
5:30 AM 51.8 °F - 46.4 °F 82% 30.48 in 6.2 mi ENE 6.7 mph - N/A   Overcast
6:00 AM 51.8 °F - 46.4 °F 82% 30.48 in 6.2 mi East 4.5 mph - N/A   Overcast
6:30 AM 51.8 °F - 46.4 °F 82% 30.48 in 6.2 mi East 6.7 mph - N/A   Overcast
7:00 AM 50.0 °F - 46.4 °F 87% 30.51 in 6.2 mi East 6.7 mph - N/A   Mostly Cloudy
7:30 AM 46.4 °F 43.0 °F 44.6 °F 93% 30.51 in 6.2 mi East 6.7 mph - N/A   Scattered Clouds
8:00 AM 48.2 °F - 46.4 °F 93% 30.51 in - East 6.7 mph - N/A   Clear
8:30 AM 50.0 °F - 46.4 °F 87% 30.51 in 6.2 mi East 6.7 mph - N/A   Scattered Clouds
9:00 AM 50 °F - 45 °F 77% 30.56 in 12 mi SE 2.2 mph - -   Scattered Clouds
9:00 AM 50.0 °F - 44.6 °F 82% 30.54 in - East 8.9 mph - N/A   Clear
9:30 AM 51.8 °F - 46.4 °F 82% 30.54 in - East 6.7 mph - N/A   Clear
10:00 AM 53.6 °F - 46.4 °F 77% 30.54 in - East 6.7 mph - N/A   Clear
10:30 AM 55.4 °F - 46.4 °F 72% 30.54 in - ESE 6.7 mph - N/A   Clear
11:00 AM 55.4 °F - 46.4 °F 72% 30.54 in - East 6.7 mph - N/A   Clear
11:30 AM 57.2 °F - 44.6 °F 63% 30.57 in - East 6.7 mph - N/A   Clear
12:00 PM 60 °F - 44 °F 44% 30.57 in 12 mi SSE 4.5 mph - -  
12:00 PM 59.0 °F - 42.8 °F 55% 30.57 in - East 8.9 mph - N/A   Clear
12:30 PM 60.8 °F - 42.8 °F 52% 30.57 in - ESE 8.9 mph - N/A   Clear
1:00 PM 60.8 °F - 41.0 °F 48% 30.57 in - East 8.9 mph - N/A   Clear
1:30 PM 62.6 °F - 41.0 °F 45% 30.57 in - ESE 6.7 mph - N/A   Clear
2:00 PM 62.6 °F - 41.0 °F 45% 30.54 in - ESE 6.7 mph - N/A   Clear
2:30 PM 62.6 °F - 39.2 °F 42% 30.54 in - East 11.2 mph - N/A   Clear
3:00 PM 64 °F - 38 °F 26% 30.54 in 12 mi SSE 4.5 mph - -  
3:00 PM 64.4 °F - 41.0 °F 42% 30.54 in - East 8.9 mph - N/A   Clear
3:30 PM 62.6 °F - 39.2 °F 42% 30.54 in - ESE 8.9 mph - N/A   Clear
4:00 PM 62.6 °F - 35.6 °F 37% 30.54 in - East 6.7 mph - N/A   Clear
4:30 PM 62.6 °F - 35.6 °F 37% 30.54 in - East 6.7 mph - N/A   Clear
5:00 PM 62.6 °F - 32.0 °F 32% 30.54 in - ESE 6.7 mph - N/A   Clear
5:30 PM 60.8 °F - 32.0 °F 34% 30.51 in - ESE 4.5 mph - N/A   Clear
6:00 PM 61 °F - 33 °F 23% 30.53 in 12 mi ESE 2.2 mph - -  
6:00 PM 57.2 °F - 33.8 °F 41% 30.54 in - East 4.5 mph - N/A   Clear
6:30 PM 53.6 °F - 33.8 °F 47% 30.54 in - East 2.2 mph - N/A   Clear
7:00 PM 48.2 °F - 37.4 °F 66% 30.54 in - East 4.5 mph - N/A   Clear
7:30 PM 50.0 °F - 35.6 °F 58% 30.54 in - East 4.5 mph - N/A   Clear
8:00 PM 44.6 °F - 37.4 °F 76% 30.54 in - East 2.2 mph - N/A   Clear
8:30 PM 46.4 °F 44.4 °F 35.6 °F 66% 30.54 in - ESE 4.5 mph - N/A   Clear
9:00 PM 52 °F - 34 °F 38% 30.55 in 12 mi Calm Calm - -  
9:00 PM 48.2 °F - 35.6 °F 62% 30.54 in - East 2.2 mph - N/A   Clear
9:30 PM 48.2 °F - 35.6 °F 62% 30.54 in - East 4.5 mph - N/A   Clear
10:00 PM 44.6 °F 42.3 °F 35.6 °F 71% 30.54 in - ESE 4.5 mph - N/A   Clear
10:30 PM 42.8 °F - 37.4 °F 81% 30.54 in 6.2 mi Variable 2.2 mph - N/A   Unknown
11:00 PM 41.0 °F 36.5 °F 35.6 °F 81% 30.54 in - East 6.7 mph - N/A   Clear
11:30 PM 39.2 °F 36.0 °F 35.6 °F 87% 30.54 in - East 4.5 mph - N/A   Clear